Location: Daerah Kuala Lumpur
(3.1167°N, 101.6833°E)
Time: 18:48:14
(UTC+00:00)

CZ-4C R/B - Pass Details

Date: 14 November 2024
Orbit: 514 x 1473 km, 63.4° (Epoch: 13 December)

Event Time Altitude Azimuth Distance (km) Brightness Sun altitude
Rises 11:53:20 0° 2° (N) 4,330 5.7 -14.2°
Reaches altitude 10° 11:56:47 10° 15° (NNE) 3,461 5.0 -15.0°
Maximum altitude 12:03:37 25° 66° (ENE) 2,591 4.1 -16.6°
Drops below altitude 10° 12:10:38 10° 117° (ESE) 3,589 5.0 -18.3°
Sets 12:14:14 0° 129° (SE) 4,521 5.7 -19.1°
